Cloud_Cover
100 98 99 100 100 100 100 100 100 100 100 100 97 57 83 91 82 92 67 47 72 96 100 100 82 65 55 36 38 75 99 100 100 100 99 100 100 91 97 93 0 100 66 5 89
7 87 70 94 100 94 100 69 76 100 100 100 100 100 100 61 19 36 54 30 5 5 2 13 5 13 39 98 97 75 65 6 57 100 100 100 100 100 33 68 100 38 98 1 61
5 88 100 87 28 29 23 52 27 32 43 16 51 93 68 5 8 10 5 5 5 5 5 5 5 5 5 5 8 5 5 6 15 6 55 36 47 5 0 5 5 17 28 1 5
6 5 5 5 5 5 6 7 12 10 23 38 46 69 68 94 100 99 93 89 84 80 65 65 59 63 39 5 5 5 4 5 5 5 5 5 5 6 5 2 1 9 5 3 8
100 100 91 99 100 100 100 100 100 100 100 95 82 44 8 12 1 0 0 0 0 0 0 0 0 0 0 0 0 0 0 2 5 5 5 5 5 5 5 26 2 1 5 2 0
0 3 3 25 26 30 11 1 0 0 0 0 0 0 0 0 0 0 0 0 0 0 0 0 0 0 0 0 0 0 0 0 0 0 0 0 0 0 0 2 10 7 0 2 0
0 0 0 0 0 0 0 0 0 0 0 0 0 0 0 0 0 0 0 0 0 0 0 0 0 0 0 0 0 0 0 0 0 0 0 0 0 5 4 0 0 2 3 0 0
0 0 0 0 0 0 0 0 0 0 0 0 0 0 0 0 0 0 0 0 0 0 0 0 0 0 0 0 0 0 0 0 0 0 0 0 0 1 0 0 5 5 5 5 5
0 0 0 0 0 0 0 0 0 0 0 0 0 0 0 0 0 0 0 0 0 1 2 0 0 0 0 0 0 0 0 0 0 0 0 0 1 5 0 5 5 5 5 5 5
0 0 0 0 0 0 0 0 0 0 0 0 0 0 0 0 0 0 0 5 5 5 4 5 4 0 0 0 0 0 0 0 0 0 0 5 5 5 0 5 5 5 5 5 5
0 0 0 0 0 0 0 0 0 0 0 0 0 4 5 5 0 2 4 5 4 5 36 34 0 0 0 0 0 0 0 0 0 0 0 5 5 5 4 5 5 14 5 5 5
0 0 0 0 0 0 0 0 0 0 0 0 0 5 56 17 4 5 21 28 100 91 4 0 0 0 0 0 0 0 0 0 0 0 0 4 4 5 4 5 18 92 80 13 5
0 0 0 0 0 0 0 0 0 0 0 0 0 0 5 30 65 87 43 16 2 0 0 0 0 0 0 0 0 0 0 0 0 0 0 0 29 47 20 5 5 12 54 8 5
0 0 2 1 0 0 0 0 0 0 0 0 0 0 0 5 5 5 1 0 1 0 0 0 0 0 0 0 0 0 0 0 0 42 56 4 25 100 100 86 40 11 22 7 5
0 0 5 0 0 0 4 0 0 0 0 0 0 0 4 1 0 0 0 0 0 0 0 0 0 0 0 0 0 0 0 0 0 5 100 4 94 100 100 100 70 24 6 5 5
5 5 5 5 0 3 0 0 0 0 0 0 0 0 0 0 0 0 0 0 0 0 0 0 0 0 0 0 0 0 0 1 16 68 99 49 98 100 100 100 97 27 7 5 5
5 5 5 5 5 2 4 4 0 0 0 0 0 0 0 0 0 0 0 0 0 0 0 0 0 0 0 0 0 0 2 4 31 100 100 100 100 100 100 100 100 91 63 5 5
5 5 5 5 5 5 5 5 1 5 5 3 0 0 0 0 0 0 0 0 0 0 0 0 0 0 0 0 0 0 11 100 100 100 100 100 100 100 100 100 100 100 100 86 5
5 5 5 5 5 5 5 5 5 5 5 0 0 0 0 0 0 0 0 0 0 0 0 0 0 0 0 0 0 0 52 9 100 100 100 100 100 100 100 100 100 100 56 5 71
5 5 5 5 5 5 5 5 6 5 5 0 0 0 0 0 0 0 0 0 0 0 0 0 0 0 0 0 0 0 1 69 100 100 100 100 100 100 100 100 100 100 100 78 23
5 5 5 18 8 5 5 5 35 40 5 0 0 0 0 0 0 0 0 0 0 0 0 0 0 0 0 1 2 2 1 6 42 99 100 94 100 100 100 100 100 100 100 98 99
5 5 14 32 35 51 8 31 10 13 5 2 0 0 0 5 0 0 0 5 0 0 0 0 0 0 0 0 2 5 2 2 5 36 100 100 100 80 100 100 100 100 100 100 100
5 9 56 19 96 37 38 12 7 11 9 5 0 0 0 0 0 0 5 3 1 2 0 0 0 2 0 0 4 4 42 74 9 5 26 98 100 31 12 97 100 100 100 100 100
14 50 63 36 76 13 60 43 43 31 14 5 0 0 0 0 0 1 5 1 5 2 0 0 0 1 22 2 84 98 100 88 9 6 10 5 14 77 95 25 52 65 100 100 94
8 69 45 22 91 52 65 62 76 20 6 5 4 0 0 0 0 5 5 5 5 0 0 0 0 0 5 5 5 20 98 5 70 6 4 2 10 5 5 5 17 5 33 100 100
15 34 46 5 98 48 40 41 67 14 6 5 5 4 0 0 0 3 5 5 2 0 0 0 3 0 5 5 7 96 7 6 100 70 5 5 5 24 83 87 17 5 5 93 100
55 6 16 7 82 56 19 56 75 6 5 5 5 5 0 0 0 0 5 5 0 0 0 0 0 0 4 23 97 93 1 17 77 66 4 3 5 5 24 100 82 8 29 5 78